PDT,Max TemperatureF,Mean TemperatureF,Min TemperatureF,Max Dew PointF,MeanDew PointF,Min DewpointF,Max Humidity, Mean Humidity, Min Humidity, Max Sea Level PressureIn, Mean Sea Level PressureIn, Min Sea Level PressureIn, Max VisibilityMiles, Mean VisibilityMiles, Min VisibilityMiles, Max Wind SpeedMPH, Mean Wind SpeedMPH, Max Gust SpeedMPH,PrecipitationIn, CloudCover, Events, WindDirDegrees
2011-10-1,57,54,48,52,50,46,100,89,77,29.99,29.91,29.86,20,15,12,13,8,,0.00,7,,313
2011-10-2,57,52,48,54,50,46,100,89,72,29.99,29.93,29.84,20,17,12,17,6,,0.00,7,Rain,53
2011-10-3,60,56,53,55,52,50,100,86,72,29.81,29.79,29.76,15,13,10,16,12,17,0.00,7,Rain,114
2011-10-4,60,56,51,50,48,45,94,77,55,29.75,29.61,29.47,20,16,15,26,13,34,0.00,7,Rain,114
2011-10-5,55,53,51,52,50,48,94,89,82,29.75,29.56,29.44,15,15,12,10,5,,0.00,8,Rain,160
2011-10-6,55,54,53,52,51,50,94,89,82,30.04,29.93,29.76,15,13,8,9,3,,0.00,8,,301
2011-10-7,57,54,48,54,51,46,100,90,77,30.23,30.12,30.03,20,14,10,13,4,,0.00,5,Fog-Rain,246
2011-10-8,60,53,46,52,49,46,100,88,59,30.25,30.16,30.06,20,11,0,12,7,,0.00,6,Fog-Rain,106
2011-10-9,59,52,46,52,49,46,100,89,63,30.06,30.00,29.84,15,14,10,7,4,,0.00,5,Fog-Rain,100
2011-10-10,55,52,48,54,50,46,100,92,82,29.82,29.59,29.49,15,12,6,15,8,17,0.00,8,Rain,93
2011-10-11,57,54,51,52,51,48,94,86,77,29.98,29.70,29.49,15,13,6,20,14,29,0.00,7,Rain,164
2011-10-12,55,50,46,48,47,45,93,81,72,30.25,30.16,30.01,20,16,15,12,8,,0.00,6,,151
2011-10-13,53,47,41,48,45,41,100,88,76,30.27,30.21,30.09,20,18,15,14,7,,0.00,5,,353
2011-10-14,53,48,44,46,45,41,100,87,77,30.09,30.04,30.01,20,20,20,13,6,,0.00,4,Fog,319
2011-10-15,51,45,39,46,43,37,100,89,76,30.17,30.10,30.05,20,13,1,13,4,,0.00,2,Fog,354
2011-10-16,51,44,37,46,42,37,100,89,71,30.32,30.18,30.08,20,17,0,10,5,,0.00,2,Fog,7
2011-10-17,55,48,42,48,46,41,100,88,72,30.47,30.41,30.34,20,18,12,9,6,,0.00,5,,53
2011-10-18,53,47,41,50,47,41,100,95,88,30.37,30.18,29.96,20,16,15,14,5,,0.00,2,,310
2011-10-19,59,52,44,52,49,45,100,89,72,30.04,29.97,29.91,20,16,12,14,6,,0.00,7,Fog-Rain,117
2011-10-20,55,52,50,52,49,45,100,90,72,30.13,30.09,30.03,20,14,6,8,4,,0.00,7,Rain,261
2011-10-21,55,52,48,54,49,46,100,93,87,30.19,30.11,30.08,20,12,2,16,8,22,0.00,8,Rain,105
2011-10-22,55,52,48,50,49,46,100,94,82,30.20,30.14,30.10,15,15,12,12,7,,0.00,7,Rain,98
2011-10-23,55,48,41,48,46,41,100,92,72,30.21,30.17,30.12,20,11,0,8,5,,0.00,3,Fog,111
2011-10-24,53,48,42,46,43,37,100,85,67,30.39,30.26,30.14,20,16,10,13,5,,0.00,4,Fog,308
2011-10-25,51,45,39,45,40,37,100,86,71,30.51,30.45,30.39,20,20,20,9,4,,0.00,1,,359
2011-10-26,48,42,37,43,40,37,100,90,76,30.40,30.28,30.19,20,16,8,14,7,,0.00,6,Rain,87
2011-10-27,51,44,37,43,40,37,100,89,67,30.36,30.28,30.11,20,13,0,7,2,,0.00,4,Fog,74
2011-10-28,48,44,39,46,41,37,100,87,71,30.07,29.94,29.85,20,13,1,16,8,17,0.00,6,Fog-Rain,89
2011-10-29,51,45,39,46,43,39,100,90,71,30.32,30.23,30.06,15,12,12,9,5,,0.00,6,Fog,99
2011-10-30,51,48,46,50,47,43,100,94,82,30.18,30.06,30.02,15,10,2,18,8,,0.00,7,Rain,92
2011-10-31,50,46,41,46,42,37,93,82,66,30.46,30.31,30.14,15,15,15,31,15,36,0.00,3,,284